Location: Bieujac
(44.5398°N, 0.1549°W)
Time: 21:45:56
(UTC+00:00)

NOSS 3-3 (A) - Pass Details

Date: 18 February 2020
Orbit: 833 x 1379 km, 63.4° (Epoch: 03 April)

Event Time Altitude Azimuth Distance (km) Brightness Sun altitude
Rises 04:51:15 0° 164° (SSE) 3,398 7.0 -23.1°
Reaches altitude 10° 04:54:30 10° 145° (SE) 2,515 6.5 -22.5°
Maximum altitude 04:58:04 17° 106° (ESE) 2,138 6.6 -21.9°
Drops below altitude 10° 05:01:50 10° 68° (ENE) 2,688 7.4 -21.2°
Sets 05:05:28 0° 50° (NE) 3,744 7.9 -20.5°
